TimeEDT,TemperatureF,Dew PointF,Humidity,Sea Level PressureIn,VisibilityMPH,Wind Direction,Wind SpeedMPH,Gust SpeedMPH,PrecipitationIn,Events,Conditions,WindDirDegrees,DateUTC
12:51 AM,64.9,53.1,65,30.06,10.0,South,3.5,-,N/A,,Mostly Cloudy,180,2013-08-12 04:51:00
1:51 AM,64.0,53.1,67,30.05,10.0,South,3.5,-,N/A,,Partly Cloudy,180,2013-08-12 05:51:00
2:51 AM,64.0,53.1,67,30.05,10.0,Calm,Calm,-,N/A,,Overcast,0,2013-08-12 06:51:00
3:51 AM,64.9,54.0,68,30.04,10.0,South,4.6,-,N/A,,Overcast,190,2013-08-12 07:51:00
4:51 AM,66.0,54.0,65,30.04,10.0,Calm,Calm,-,N/A,,Overcast,0,2013-08-12 08:51:00
5:51 AM,64.0,55.0,73,30.03,10.0,South,3.5,-,N/A,,Overcast,180,2013-08-12 09:51:00
6:51 AM,64.0,55.9,75,30.04,10.0,South,4.6,-,N/A,,Overcast,180,2013-08-12 10:51:00
7:51 AM,66.0,57.0,73,30.04,10.0,SSW,5.8,-,N/A,,Overcast,200,2013-08-12 11:51:00
8:51 AM,70.0,57.9,65,30.03,10.0,South,5.8,-,N/A,,Overcast,190,2013-08-12 12:51:00
9:51 AM,72.0,61.0,68,30.02,10.0,South,5.8,-,N/A,,Overcast,180,2013-08-12 13:51:00
10:51 AM,73.0,60.1,64,30.03,10.0,South,4.6,-,N/A,,Mostly Cloudy,180,2013-08-12 14:51:00
11:51 AM,72.0,61.0,68,30.02,10.0,WSW,4.6,-,N/A,,Overcast,250,2013-08-12 15:51:00
12:16 PM,69.8,64.4,83,30.04,1.5,WNW,3.5,-,0.03,Rain,Heavy Rain,290,2013-08-12 16:16:00
12:40 PM,69.8,64.4,83,30.04,3.0,West,3.5,-,0.12,Rain,Light Rain,270,2013-08-12 16:40:00
12:51 PM,70.0,64.9,84,30.03,7.0,WSW,4.6,-,0.13,Rain,Light Rain,250,2013-08-12 16:51:00
1:51 PM,70.0,64.9,84,30.00,10.0,SSW,9.2,-,0.03,Rain,Light Rain,200,2013-08-12 17:51:00
2:51 PM,69.1,63.0,81,30.00,10.0,SSW,8.1,-,0.00,,Mostly Cloudy,200,2013-08-12 18:51:00
3:51 PM,69.1,64.0,84,30.00,10.0,WSW,5.8,-,0.01,Rain,Light Rain,240,2013-08-12 19:51:00
4:51 PM,69.1,64.0,84,29.98,10.0,SW,6.9,-,0.00,Rain,Light Rain,220,2013-08-12 20:51:00
5:51 PM,69.1,63.0,81,29.96,10.0,South,4.6,-,0.00,,Clear,190,2013-08-12 21:51:00
6:51 PM,69.1,64.0,84,29.94,10.0,South,5.8,-,0.00,,Scattered Clouds,180,2013-08-12 22:51:00
7:51 PM,68.0,63.0,84,29.91,10.0,South,5.8,-,N/A,,Mostly Cloudy,170,2013-08-12 23:51:00
8:51 PM,68.0,64.0,87,29.91,9.0,Calm,Calm,-,N/A,,Overcast,0,2013-08-13 00:51:00
9:51 PM,66.9,63.0,87,29.90,10.0,SSE,8.1,-,N/A,,Overcast,160,2013-08-13 01:51:00
10:51 PM,66.9,63.0,87,29.86,10.0,SSE,6.9,-,N/A,,Clear,150,2013-08-13 02:51:00
11:51 PM,69.1,63.0,81,29.84,10.0,SSE,13.8,-,N/A,,Mostly Cloudy,160,2013-08-13 03:51:00